Regional Weather Roundup
Issued by NWS Goodland, KS

Home | Current Version | Previous Version | Graphics & Text | Print | Product List | Glossary On
Versions: 1 2 3 4 5 6 7 8 9 10 11 12 13 14 15 16 17 18 19 20 21 22 23 24 25 26 27 28 29 30 31 32 33 34 35 36 37 38 39 40 41 42 43 44 45 46 47 48 49 50
000
ASUS43 KGLD 240208
RWRGLD

GOODLAND FORECAST AREA HOURLY WEATHER ROUNDUP
NATIONAL WEATHER SERVICE GOODLAND KS
800 PM MDT SAT MAY 23 2015

...OFFICIAL OBSERVATIONS...

CITY           SKY/WX    TMP DP  RH WIND       PRES   REMARKS
GOODLAND KS    HVY RAIN  56  50  80 SE15      29.90F
HILL CITY KS   LGT RAIN  58  57  97 E7        29.94R VSB 1
IMPERIAL NEB   CLOUDY    59  54  83 E13       29.91F
MCCOOK NEB     CLOUDY    58  56  93 E15       29.93F
AKRON CO       CLOUDY    52  49  89 NE8       29.89F
BURLINGTON CO  CLOUDY    53  48  83 NE5       29.89F
LIMON CO       CLEAR     49  44  83 E7        29.92R
$$

...UNOFFICIAL OBSERVATIONS...

CITY           SKY/WX    TMP DP  RH WIND       PRES   REMARKS
COLBY KS       CLOUDY    59  59 100 E13       29.93S
GOVE KS          N/A     59  32  36 MISG        N/A
LENORA KS        N/A     57  32  39 MISG        N/A
NORTON KS      DRIZZLE   57  55  94 E7        29.95S
SHARON SPRINGS   N/A     55  53  92 MISG        N/A
TRENTON NEB      N/A     58  32  37 SE16        N/A
KIT CARSON CO    N/A     54  50  86 MISG        N/A
$$



USA.gov is the U.S. government's official web portal to all federal, state and local government web resources and services.